Location: Bouchavesnes-Bergen
(49.9859°N, 2.9203°E)
Time: 11:36:31
(UTC+00:00)

Cosmos 1151 Rocket - Pass Details

Date: 09 March 2021
Orbit: 592 x 616 km, 82.5° (Epoch: 12 April)

Event Time Altitude Azimuth Distance (km) Brightness Sun altitude
Rises 05:14:09 0° 203° (SSW) 2,850 6.2 -10.6°
Reaches altitude 10° 05:16:25 10° 208° (SSW) 1,947 5.3 -10.2°
Maximum altitude 05:20:36 49° 285° (WNW) 779 3.2 -9.5°
Drops below altitude 10° 05:24:47 10° 0° (N) 1,949 5.7 -8.8°
Sets 05:27:04 0° 6° (N) 2,853 6.6 -8.5°
